Augusta, GA

3:59 PM EDT on April 27, 2017 (GMT -0400)
Daniel

Weather History for KDNL - November, 2012

Change the Weather History Date:

Monday, November 19, 2012

  Actual Average Record
Temperature  
Mean Temperature 59 °F -  
Max Temperature 68 °F 63 °F 76 °F (2007)
Min Temperature 50 °F 45 °F 24 °F (2014)
Degree Days  
Heating Degree Days 6    
Month to date heating degree days 185  
Growing Degree Days 8 (Base 50)    
Moisture  
Dew Point 46 °F    
Average Humidity 67    
Maximum Humidity 83    
Minimum Humidity 48    
Precipitation  
Precipitation T in - - ()
Month to date precipitation 0.75  
Year to date precipitation 40.10  
Sea Level Pressure  
Sea Level Pressure 30.23 in    
Wind  
Wind Speed 8 mph (North)    
Max Wind Speed 16 mph    
Max Gust Speed 21 mph    
Visibility 10 miles    
Events Rain    
Averages and records for this station are not official NWS values.
T = Trace of Precipitation, MM = Missing Value Source: NWS Daily Summary

Daily Weather History Graph

Daily Weather History Graph

Search for Another Location

Airport or City:

Trip Planner

Search our weather history database for the weather conditions in past years. The results will help you decide how hot, cold, wet, or windy it might be!

Date:

Astronomy

Nov. 19, 2012 Rise Set
Actual Time 7:03 AM EST 5:23 PM EST
Civil Twilight 6:37 AM EST 5:49 PM EST
Nautical Twilight 6:06 AM EST 6:20 PM EST
Astronomical Twilight 5:37 AM EST 6:49 PM EST
Moon 12:12 PM EST (11/19) 11:41 PM EST (11/19)
Length of Visible Light 11h 12m
Length of Day
10h 19m
Waxing Crescent, 40% of the Moon is Illuminated
Nov 19
Waxing Crescent
Nov 20
First Quarter
Nov 28
Full
Dec 6
Last Quarter
Dec 13
New

Hourly Weather History & Observations

Time (EST) Temp. Dew Point Humidity Pressure Visibility Wind Dir Wind Speed Gust Speed Precip Events Conditions
12:53 AM 53.1 °F 44.1 °F 71% 30.28 in 10.0 mi NNE 11.5 mph - N/A   Overcast
1:53 AM 53.1 °F 45.0 °F 74% 30.27 in 10.0 mi North 10.4 mph 19.6 mph N/A   Overcast
2:53 AM 52.0 °F 45.0 °F 77% 30.27 in 10.0 mi North 9.2 mph - N/A   Overcast
3:53 AM 52.0 °F 44.1 °F 74% 30.26 in 10.0 mi North 8.1 mph - N/A   Overcast
4:53 AM 52.0 °F 43.0 °F 71% 30.26 in 10.0 mi North 8.1 mph - N/A   Overcast
5:53 AM 52.0 °F 43.0 °F 71% 30.27 in 10.0 mi North 11.5 mph - N/A   Overcast
6:53 AM 52.0 °F 43.0 °F 71% 30.28 in 10.0 mi North 8.1 mph - 0.00 in Rain Light Rain
7:53 AM 51.1 °F 44.1 °F 77% 30.28 in 10.0 mi North 8.1 mph - 0.00 in   Overcast
8:21 AM 53.6 °F 42.8 °F 67% 30.27 in 10.0 mi North 10.4 mph - N/A   Overcast
8:53 AM 54.0 °F 43.0 °F 66% 30.28 in 10.0 mi North 8.1 mph - N/A   Overcast
9:53 AM 57.0 °F 44.1 °F 62% 30.27 in 10.0 mi North 8.1 mph - N/A   Overcast
10:15 AM 57.2 °F 44.6 °F 63% 30.27 in 10.0 mi NNE 10.4 mph 19.6 mph N/A   Mostly Cloudy
10:53 AM 60.1 °F 45.0 °F 57% 30.26 in 10.0 mi North 9.2 mph - N/A   Scattered Clouds
11:53 AM 63.0 °F 46.0 °F 54% 30.24 in 10.0 mi North 6.9 mph - N/A   Mostly Cloudy
12:53 PM 64.9 °F 46.9 °F 52% 30.20 in 10.0 mi NE 12.7 mph 18.4 mph N/A   Scattered Clouds
1:53 PM 66.0 °F 46.9 °F 50% 30.19 in 10.0 mi NNE 8.1 mph - N/A   Mostly Cloudy
2:53 PM 66.9 °F 46.9 °F 49% 30.18 in 10.0 mi Variable 4.6 mph - N/A   Clear
3:53 PM 66.0 °F 46.9 °F 50% 30.18 in 10.0 mi North 8.1 mph - N/A   Clear
4:53 PM 64.0 °F 48.0 °F 56% 30.18 in 10.0 mi North 4.6 mph - N/A   Clear
5:53 PM 62.1 °F 48.9 °F 62% 30.19 in 10.0 mi North 8.1 mph - N/A   Clear
6:53 PM 60.1 °F 48.9 °F 67% 30.19 in 10.0 mi North 5.8 mph - N/A   Clear
7:53 PM 57.9 °F 48.9 °F 72% 30.19 in 10.0 mi North 3.5 mph - N/A   Clear
8:53 PM 55.0 °F 48.0 °F 77% 30.19 in 10.0 mi NW 4.6 mph - N/A   Clear
9:53 PM 54.0 °F 48.0 °F 80% 30.18 in 10.0 mi North 5.8 mph - N/A   Clear
10:53 PM 54.0 °F 48.0 °F 80% 30.18 in 10.0 mi North 8.1 mph - N/A   Clear
11:53 PM 52.0 °F 46.9 °F 83% 30.17 in 10.0 mi North 6.9 mph - N/A   Clear